Погода в Семьинском

Россия / Владимирская область     56°21′53″N   39°45′52″E
В апреле 2022 года жителям России запретили посещать сайт meteo.paraplan.net по решению Генеральной прокуратуры. Аудитория сайта уменьшилась в 10 раз. Владельцы сайта не видят смысла в поддержке погодного сервера в таких условиях. Сайт будет закрыт в октябре.
темп.,
°C
ветер,
м/с
пор.,
м/с
влажн.,
%
обл.,
%
осадки,
мм/ч
давл.,
гПа
погр.,
м
29 сентября, чт
чт2900:00+8зюз2494100 0.1 1004246
03:00+7юз2595100 0.1 1005263
06:00+7юз2596100 0.0 1006269
09:00+9зюз2485100 0.0 1007338
12:00+11юз347591 0.0 1009570
15:00+13ююз457176 0.0 1010798
18:00+11ю238666 0.0 101177
21:00+11ю23905 0.0 101373
30 сентября, пт
пт3000:00+8ю229168 0.0 101422
03:00+8ю3394100 0.0 101554
06:00+8ю3694100 0.0 1016120
09:00+11ю487983 0.0 1016279
12:00+15ю6965100 0.0 1016699
15:00+15ю5975100 0.0 1016691
18:00+13ю3786100 0.0 1016164
21:00+13ююв3997100 1.5 1016353
1 октября, сб
сб100:00+13ююз3799100 0.8 1016379
03:00+12зюз2599100 0.9 1016301
06:00+12с1197100 0.1 101733
09:00+12всв1193100 0.1 1017133
12:00+13всв1296100 0.8 1016139
15:00+12св2597100 2.7 1014268
18:00+11ссв3696100 2.9 1014223
21:00+11в2598100 2.9 1012229
2 октября, вс
вс200:00+12юв3799100 1.5 1010307
03:00+12ююз3799100 3.8 1008351
06:00+12юз2698100 0.0 1008383
09:00+13юз359387 0.1 1008398
12:00+13зюз4584100 0.4 1009657
15:00+12з2487100 0.7 1010426
18:00+10с4694100 0.4 1011342
21:00+9ссв3694100 0.4 1012342
3 октября, пн
пн300:00+9св3594100 0.0 1013308
03:00+8св4795100 0.0 1012313
06:00+10св599798 0.0 1009287
09:00+11всв51295100 0.0 1008414
12:00+12в71394100 0.3 1006494
15:00+16в61287100 0.9 1005732
18:00+15вюв71475100 0.0 1004692
21:00+15юв91568100 0.6 10031045